CAPE
17 243 342 513 1001 1451 1501 1222 1523 1660 1692 1552 1418 1706 1944 1498 1807 1600 1680 1622 1459 1744 1863 1661 1361 1275 1538 1335 1312 1329 1260 1395 1521 1363 1481 1302 1345 1368 1369 1477 1091 997 1222
37 367 384 730 1069 1206 1275 1417 1496 1579 1675 1608 1435 1534 1408 1231 1373 1864 1694 1846 1949 1765 1695 1891 1832 1576 1298 1237 1600 1627 1715 1549 1501 1409 1461 1365 1435 1357 1156 1331 1031 1291 1466
106 479 579 951 1006 1155 1480 1437 1739 1382 1636 1631 1673 1564 1309 1405 1425 1640 1822 1168 1331 1521 1625 1413 1367 1393 1556 1639 1409 1284 1452 1463 1429 1513 883 363 571 1203 1152 1142 1292 1445 1521
196 499 641 891 1137 1616 1470 1380 1419 1605 1382 1545 1661 1310 1336 1522 1275 1151 1366 1667 1903 1113 1516 1567 1526 1410 1398 1390 1476 1547 1336 1109 1102 849 567 413 299 1025 1346 1222 1051 817 849
299 528 748 981 1401 1402 1708 1933 1670 1676 1805 1641 1307 1440 1408 1137 780 610 624 664 940 1280 1381 1553 1453 1352 1182 899 865 931 1046 1153 453 324 480 761 682 843 942 971 862 1175 1143
338 645 826 1122 1445 1761 2087 1898 1770 1691 1541 1739 1513 1390 1366 1555 1192 989 709 613 502 494 748 1099 1012 857 544 238 244 680 1521 1497 500 498 640 841 973 1007 1193 924 827 1034 805
356 723 884 1258 1426 1884 1922 1822 1627 1706 1803 1632 1500 1537 1624 1791 1992 1656 1196 843 630 387 409 527 739 584 161 283 1207 866 1141 751 496 380 831 1247 1246 933 1249 1089 940 818 1125
208 713 932 1189 1343 1749 1876 1768 1835 1808 1902 1772 1794 1897 1917 1824 1824 1652 1438 1259 1088 728 571 605 485 304 198 372 1095 938 743 371 77 19 161 321 434 457 1137 1045 945 678 756
233 638 1075 1148 1231 1618 1814 1791 1695 2049 1982 1804 1818 1916 1891 1971 1949 1692 1776 1517 1187 973 905 785 578 333 219 389 839 1191 1147 348 56 188 125 142 296 473 384 616 541 559 593
334 460 1048 1324 1192 1609 1747 1613 1940 2092 1978 1728 1497 1596 1474 1522 1681 1450 1361 1573 1305 1026 700 444 275 242 250 346 192 1118 64 50 8 92 70 63 567 914 814 895 931 560 608
528 683 930 1050 1048 1550 1733 1828 1757 1537 1766 1802 1351 1088 860 1034 1199 1536 1512 1614 1705 1767 1719 1377 1010 739 607 419 442 46 1 0 0 0 0 0 16 134 572 473 453 631 566
216 471 937 741 797 1516 1409 2175 1666 1731 1561 1552 1216 1061 983 1226 1456 1335 1068 641 657 864 1027 1254 1485 1367 1351 1128 939 679 450 120 0 0 0 0 0 9 118 139 147 136 131
164 273 628 547 678 1055 1500 1216 1269 1266 1277 1175 1312 1454 1431 1311 1247 1046 1079 945 1264 1343 1669 1699 1813 1838 1863 1577 1382 1019 806 653 32 0 0 0 0 0 49 43 16 8 8
336 227 443 382 607 684 870 782 1134 1309 1363 1232 1420 1509 1366 1202 1424 1466 1370 1108 1195 1183 1349 1481 1559 1768 2034 2134 1975 1788 1568 731 77 1 1 0 0 2 58 122 58 34 34
324 334 382 193 436 511 362 619 987 1267 1425 1462 1505 1589 1369 1434 1438 1420 970 1126 1175 1109 1178 1360 1492 1732 1864 1910 1959 1944 1815 1593 737 59 51 4 0 33 86 302 383 286 217
39 175 274 240 263 369 183 310 801 1163 1398 1485 1539 1537 1275 1303 1531 1365 1183 1279 1361 1484 1086 1041 1529 1621 1548 1847 1790 1308 1337 1601 1626 972 160 95 36 52 161 295 497 693 740
0 24 110 95 94 94 83 273 448 749 1058 1415 1522 1536 1358 1395 1398 1334 1170 1165 1336 1437 1186 1360 1781 1769 1578 1698 1805 1778 1302 1196 1272 1262 731 236 232 122 149 347 488 508 715
0 0 31 8 14 20 24 124 202 500 955 1300 1428 1480 1410 1370 1297 1112 1065 1110 1289 1449 1324 1390 1582 1431 1442 1493 1853 1900 2060 1618 1097 990 974 663 458 464 416 362 554 642 666
0 0 0 9 45 49 25 62 225 391 965 1354 1378 1332 1326 1267 1291 1279 1132 1059 1170 1366 1412 1062 1289 1595 1484 1416 1223 1374 1704 1538 1303 1071 1119 1007 886 657 679 694 501 568 719
8 0 0 0 24 66 44 41 253 458 813 1164 1328 1291 1129 1079 991 1117 1131 1037 1040 1116 1265 1443 1055 1420 1468 1299 1039 1182 1583 1331 1340 1490 1412 1292 1174 1117 998 1019 1111 1045 621
28 20 3 0 15 68 57 55 393 601 922 1134 1290 1395 1471 1454 1102 886 843 933 1133 976 1308 1459 1272 993 946 1234 979 866 902 1378 1307 1206 1329 1215 897 926 1030 1060 1094 992 719
159 95 50 26 82 73 150 352 601 753 962 1063 1229 1254 1329 1400 1244 1086 943 847 994 828 1084 1519 1452 1164 1012 1214 869 756 648 598 1404 1151 1194 1428 1371 1127 1033 970 949 746 438
123 228 194 205 265 165 364 568 549 597 677 660 792 831 887 1019 1110 1120 1035 975 900 871 618 1257 1532 1416 980 1077 1412 912 360 467 1335 1277 1116 1329 1547 1208 1087 911 850 695 242
92 224 371 389 435 512 571 588 691 686 651 601 708 762 838 876 902 971 898 862 806 934 877 638 816 1249 1232 956 1114 1313 1504 1502 985 982 1230 1349 1654 1267 1096 865 783 641 463
87 178 317 389 479 557 510 605 736 727 649 608 491 421 482 710 810 713 755 813 758 764 868 966 873 828 714 693 865 947 1194 1398 1708 1324 774 983 987 859 768 600 410 45 133
141 108 259 252 213 307 301 424 457 470 488 467 482 374 371 407 533 737 811 817 782 808 766 840 1053 1079 985 849 807 1229 1203 686 490 918 903 878 983 935 846 736 480 312 632
CIN
-5 -9 -6 -2 -0 -0 -0 -1 -1 -0 -1 -1 -2 -0 -0 -2 -0 -1 -0 -0 -0 -0 -0 -0 -0 -0 -0 -0 -0 -0 -0 -0 -0 -0 -0 -0 -0 -0 -1 -0 -2 -1 -0
-46 -6 -9 -1 -1 -1 -2 -2 -1 -2 -2 -3 -4 -4 -1 -3 -2 -0 -0 -0 -0 -0 -0 -0 -0 -0 -0 -0 -0 -0 -0 -0 -0 -0 -0 -0 -0 -0 -0 -0 -0 -0 -0
-70 -3 -1 -1 -2 -2 -0 -5 -0 -1 -2 -2 -1 -1 -2 -3 -2 -0 -0 -3 -0 -0 -0 -0 -0 -0 -0 -0 -0 -0 -0 -0 -0 -0 -3 -1 -1 -0 -0 -0 -0 -0 -0
-32 -2 -5 -5 -3 -0 -3 -3 -2 -1 -2 -4 -2 -0 -0 -0 -0 -0 -0 -0 -0 -9 -0 -0 -0 -0 -0 -2 -0 -0 -0 -0 -2 -4 -1 -6 -11 -0 -0 -0 -0 -1 -3
-22 -9 -5 -4 -1 -2 -0 -1 -2 -1 -2 -2 -1 -0 -0 -0 -3 -27 -34 -43 -23 -4 -2 -0 -1 -6 -8 -14 -12 -9 -3 -0 -42 -39 -23 -1 -0 -0 -0 -0 -0 -0 -0
-26 -15 -8 -1 -0 -0 -0 -0 -1 -2 -2 -0 -0 -0 -0 -0 -0 -2 -42 -70 -85 -83 -46 -12 -17 -19 -55 -121 -117 -33 -1 -0 -54 -40 -22 -1 -0 -3 -0 -0 -0 -0 -2
-45 -18 -4 -0 -0 -0 -0 -1 -3 -3 -1 -0 -0 -0 -0 -0 -0 -0 -14 -60 -85 -129 -119 -87 -56 -83 -168 -149 -20 -56 -33 -66 -81 -111 -26 -0 -0 -14 -2 -3 -7 -12 -0
-77 -17 -0 -0 -1 -1 -0 -3 -3 -2 -0 -0 -0 -0 -0 -1 -0 -0 -10 -28 -49 -94 -111 -108 -129 -167 -189 -163 -65 -90 -115 -167 -251 -275 -189 -128 -112 -115 -21 -26 -26 -57 -40
-66 -27 -2 -0 -0 -1 -1 -2 -3 -0 -0 -0 -0 -0 -0 -0 -0 -12 -11 -26 -48 -73 -80 -100 -139 -185 -221 -184 -129 -94 -90 -218 -302 -215 -232 -192 -182 -138 -158 -106 -104 -106 -96
-46 -29 -2 -0 -0 -4 -0 -6 -1 -1 -0 -0 -8 -16 -29 -33 -29 -41 -36 -31 -43 -74 -123 -168 -207 -221 -222 -206 -247 -126 -298 -341 -297 -296 -282 -270 -140 -83 -93 -74 -62 -109 -100
-20 -21 -4 -10 -22 -2 -0 -1 -3 -13 -4 -7 -36 -63 -58 -48 -44 -28 -43 -40 -35 -34 -46 -79 -121 -155 -173 -201 -209 -295 -64 -0 -0 -0 -0 -0 -275 -311 -160 -170 -165 -114 -122
-59 -32 -5 -27 -47 -2 -3 -0 -4 -7 -10 -25 -57 -72 -59 -60 -66 -49 -57 -144 -157 -146 -124 -98 -85 -108 -107 -80 -105 -176 -150 -266 -0 -0 -0 -0 -0 -272 -330 -294 -278 -266 -248
-68 -48 -21 -49 -61 -33 -2 -24 -23 -33 -35 -49 -63 -63 -53 -53 -54 -51 -62 -96 -85 -86 -47 -45 -44 -45 -60 -60 -74 -103 -124 -144 -286 -0 -0 -0 -0 -0 -397 -377 -389 -397 -387
-25 -53 -41 -81 -63 -60 -47 -61 -35 -30 -40 -46 -52 -61 -56 -46 -49 -58 -56 -81 -86 -87 -75 -71 -58 -65 -54 -52 -66 -64 -70 -123 -240 -42 -43 -0 -0 -146 -375 -313 -331 -325 -342
-6 -29 -58 -113 -75 -86 -114 -82 -52 -38 -32 -44 -48 -54 -56 -43 -49 -42 -67 -70 -77 -98 -95 -83 -78 -78 -69 -55 -56 -62 -51 -56 -133 -285 -301 -233 -0 -414 -375 -268 -227 -222 -239
-115 -49 -62 -75 -90 -92 -135 -126 -61 -38 -35 -43 -45 -42 -57 -51 -44 -41 -46 -47 -52 -65 -98 -106 -81 -79 -88 -58 -56 -81 -77 -53 -67 -119 -233 -250 -376 -362 -299 -248 -215 -173 -153
-9 -154 -98 -129 -150 -175 -176 -110 -93 -58 -34 -31 -34 -51 -58 -53 -49 -54 -46 -39 -51 -54 -84 -71 -50 -55 -61 -47 -50 -52 -72 -80 -67 -85 -140 -202 -204 -350 -293 -213 -203 -203 -173
-0 -0 -193 -149 -153 -169 -159 -152 -108 -81 -49 -31 -30 -41 -52 -50 -54 -55 -44 -46 -60 -46 -63 -54 -52 -56 -61 -66 -37 -30 -38 -58 -85 -102 -104 -125 -158 -137 -171 -234 -206 -199 -184
-0 -0 -0 -119 -176 -199 -172 -182 -121 -105 -55 -35 -37 -36 -38 -41 -46 -52 -45 -44 -60 -39 -44 -70 -55 -55 -53 -68 -71 -54 -50 -57 -65 -64 -92 -114 -120 -147 -110 -118 -213 -203 -180
-112 -0 -0 -0 -146 -149 -128 -203 -99 -81 -58 -43 -39 -36 -37 -35 -48 -47 -42 -58 -66 -50 -40 -46 -81 -49 -54 -76 -83 -69 -42 -64 -74 -66 -87 -80 -77 -118 -117 -110 -114 -85 -145
-114 -133 -151 -0 -140 -126 -117 -101 -72 -49 -29 -33 -28 -37 -33 -32 -36 -49 -39 -72 -60 -76 -47 -45 -58 -82 -65 -75 -73 -82 -68 -47 -41 -69 -79 -71 -94 -89 -116 -108 -106 -68 -56
-90 -108 -118 -132 -141 -147 -107 -91 -64 -46 -25 -28 -24 -26 -31 -30 -38 -38 -34 -38 -50 -66 -52 -37 -51 -62 -75 -70 -69 -72 -81 -72 -37 -54 -62 -46 -60 -62 -53 -50 -67 -76 -74
-91 -94 -105 -110 -115 -113 -96 -87 -71 -62 -46 -31 -21 -22 -26 -30 -34 -39 -37 -41 -46 -49 -55 -31 -33 -38 -62 -61 -48 -39 -90 -70 -44 -38 -42 -22 -25 -21 -24 -24 -36 -47 -79
-91 -100 -94 -100 -104 -99 -104 -66 -51 -27 -18 -18 -17 -15 -18 -19 -23 -37 -41 -40 -43 -34 -40 -47 -37 -38 -38 -28 -24 -19 -18 -11 -16 -37 -12 -7 -19 -20 -26 -20 -23 -34 -53
-132 -113 -119 -126 -118 -104 -111 -75 -51 -37 -33 -28 -27 -37 -30 -31 -24 -24 -33 -40 -41 -33 -36 -37 -34 -43 -41 -43 -10 -4 -2 -2 -3 -1 -26 -9 -4 -12 -28 -30 -31 -74 -60
-174 -174 -141 -162 -163 -146 -136 -103 -81 -65 -68 -47 -40 -39 -37 -37 -25 -26 -26 -32 -44 -41 -40 -31 -30 -35 -32 -31 -28 -12 -5 -4 -19 -1 -0 -5 -6 -7 -22 -44 -37 -42 -27
Wind_Speed
22 19 15 15 17 17 16 17 3 21 29 17 16 15 13 13 13 20 21 20 21 23 20 20 20 21 22 18 11 6 26 28 29 29 29 29 28 28 28 28 26 27 26
30 20 20 16 14 15 12 11 1 5 9 8 10 12 2 7 19 21 21 22 21 20 19 16 17 17 14 10 2 11 16 24 26 26 27 28 27 27 27 27 25 27 26
28 22 19 14 11 10 11 1 13 24 19 11 8 2 2 13 20 21 20 18 16 14 13 13 12 9 2 2 6 11 19 22 23 24 23 23 25 25 26 26 26 26 26
21 21 20 15 12 5 1 7 29 21 15 6 4 3 12 24 22 19 16 16 15 13 9 4 1 4 9 10 13 15 19 20 21 22 22 23 24 24 25 25 25 25 25
29 22 23 12 8 10 4 21 20 12 8 3 3 14 20 18 21 19 17 11 3 6 10 9 9 9 10 12 13 15 19 21 23 22 23 23 23 24 24 24 24 24 23
30 30 20 11 14 6 6 17 18 7 4 3 3 26 25 12 23 17 8 8 14 15 15 15 13 12 10 10 14 16 20 26 23 22 23 24 22 24 24 24 23 23 23
24 10 22 11 14 10 4 21 16 3 5 6 24 27 18 8 8 3 1 10 15 17 18 16 14 12 8 9 13 26 25 26 22 22 22 21 20 20 20 22 23 23 23
21 14 6 3 9 13 4 16 9 5 9 10 27 23 13 3 0 1 2 9 14 15 16 17 16 14 11 11 21 24 24 22 20 21 20 19 19 19 19 21 22 22 21
19 18 12 11 7 9 11 17 12 11 14 20 25 18 13 12 9 7 8 9 13 16 18 18 19 18 18 13 20 22 22 18 19 18 18 18 19 19 19 19 20 20 21
17 14 11 7 4 14 20 17 16 14 16 22 19 16 17 14 11 8 13 12 15 17 17 18 19 19 19 16 16 22 19 18 16 17 17 17 17 17 18 18 19 19 18
15 10 11 11 10 18 18 17 16 15 20 20 18 16 14 12 9 7 8 9 13 15 16 18 18 17 16 15 18 20 19 15 16 16 15 16 16 16 16 16 17 17 17
28 29 19 6 23 23 20 17 17 18 19 19 19 15 12 9 8 9 9 10 12 14 17 17 17 16 16 14 15 18 14 15 16 15 15 16 17 16 15 15 15 15 15
27 28 28 30 24 22 21 20 19 20 21 21 18 13 12 12 11 11 11 11 11 12 14 14 15 15 15 15 15 15 14 15 15 14 14 15 16 16 14 14 14 13 13
26 29 33 31 29 24 22 20 19 21 22 21 18 14 15 15 13 12 12 12 12 11 12 10 11 12 13 14 14 14 14 14 15 14 13 14 13 14 13 12 12 13 12
28 32 34 31 29 25 23 21 21 21 21 20 19 16 16 14 13 11 11 11 11 11 11 10 11 11 12 13 13 12 13 14 14 13 12 13 12 12 11 10 10 11 11
29 32 34 34 30 27 24 23 22 20 19 21 20 19 16 15 13 12 12 11 11 11 12 11 11 11 11 12 12 11 12 13 13 13 12 11 11 10 9 8 8 8 9
29 31 33 33 31 29 26 24 22 20 19 20 21 20 19 17 15 15 15 14 14 13 13 13 12 12 12 12 12 12 12 12 12 11 11 10 9 8 7 6 5 5 6
29 31 32 32 31 30 27 23 21 20 20 20 21 21 21 20 18 18 18 17 17 17 16 15 15 15 14 14 14 14 13 12 12 11 11 10 8 7 6 4 3 3 3
27 29 31 32 30 28 26 24 22 21 20 20 21 21 21 21 21 21 21 20 20 20 19 18 18 17 17 17 17 16 15 15 14 14 12 9 7 5 4 6 3 1 2
27 28 29 30 30 28 27 25 24 24 23 22 23 22 21 21 22 22 23 24 23 23 22 21 21 20 20 20 20 20 20 19 19 17 14 9 5 3 4 4 8 9 7
26 26 28 27 28 27 27 26 26 25 25 25 25 24 23 23 22 23 24 25 26 26 25 24 24 24 24 24 24 25 24 22 22 23 24 25 24 16 13 12 13 15 18
22 22 24 28 27 24 22 26 25 24 24 25 24 27 27 27 26 26 26 25 27 28 28 27 25 27 27 26 27 27 26 25 23 25 24 24 24 23 23 22 21 20 23
20 17 15 18 17 22 25 21 24 24 25 25 27 27 27 28 28 28 29 29 28 29 30 30 29 28 30 29 27 28 26 23 27 23 26 21 24 24 25 25 25 25 29
19 12 5 2 11 1 10 17 19 23 27 27 27 28 29 29 30 29 30 29 28 30 31 32 31 31 30 33 30 25 23 26 22 19 21 25 21 26 26 26 29 31 31
3 7 2 4 8 8 7 4 13 18 19 28 27 28 29 30 28 29 31 32 31 29 30 33 34 33 32 34 34 32 31 29 24 9 16 21 24 26 30 28 32 34 33
10 11 13 12 9 10 10 6 3 6 9 25 28 28 30 29 30 28 30 33 33 33 31 30 34 36 36 34 34 34 33 33 36 35 36 35 37 29 24 24 31 32 30
Wind_Direction
168 170 173 171 164 163 163 159 77 57 78 45 52 152 155 157 40 45 48 44 46 51 40 42 44 48 50 39 21 13 116 108 95 96 90 91 97 92 98 97 106 86 83
148 166 163 168 169 169 170 169 81 31 34 157 158 157 169 9 38 45 46 48 43 41 40 31 35 36 29 22 182 159 145 124 109 109 100 96 101 102 101 104 111 97 93
155 165 169 175 177 177 174 76 41 122 150 162 169 205 291 14 38 42 41 35 27 24 24 26 28 21 16 171 167 156 135 125 123 118 118 118 109 110 106 103 105 106 103
172 169 169 178 181 184 144 169 108 147 160 182 211 317 15 55 44 33 26 25 26 25 19 6 173 175 166 164 154 147 135 131 128 124 123 120 115 115 112 107 108 107 104
145 166 160 188 194 188 197 152 150 169 185 222 217 18 32 28 39 35 32 13 216 182 172 173 169 163 161 156 153 146 139 130 123 123 122 120 120 115 117 114 112 109 114
115 125 80 197 186 212 209 163 160 192 214 214 236 64 57 154 61 32 8 175 160 159 158 156 157 156 156 158 149 142 131 119 122 125 122 120 124 120 118 116 117 117 114
100 56 89 196 194 204 241 155 165 246 202 189 95 66 80 170 7 189 200 164 158 155 153 153 153 153 155 150 142 122 120 117 125 124 126 128 128 129 126 119 115 117 116
100 70 28 355 223 202 248 178 198 221 181 174 82 125 154 187 21 130 155 162 158 157 155 151 150 149 148 143 131 126 121 125 128 128 131 131 131 129 126 120 116 115 116
103 91 61 59 29 234 207 177 189 185 170 141 116 146 160 159 160 157 157 158 158 157 155 151 146 141 139 144 134 130 126 133 133 134 133 132 130 127 125 123 118 115 113
105 88 68 39 357 208 176 181 174 179 167 139 151 156 154 156 160 162 157 161 160 158 160 155 147 142 139 143 141 129 134 136 142 139 138 137 134 130 125 121 118 115 115
108 92 82 82 227 197 190 184 181 180 159 155 159 164 166 170 179 187 185 184 174 169 165 158 155 153 154 150 141 134 136 144 144 142 142 138 137 133 128 123 119 115 113
156 158 214 80 191 184 190 192 182 177 171 165 162 176 183 194 200 193 190 189 182 175 165 164 164 163 162 165 155 143 153 145 143 142 142 137 132 128 127 122 120 117 114
146 146 148 177 197 193 191 181 180 176 170 163 178 198 203 196 190 188 183 182 183 179 172 174 172 172 169 167 163 159 158 152 148 148 146 138 131 124 125 120 116 115 114
137 146 165 185 181 195 188 187 185 171 169 169 183 209 196 187 190 188 180 179 184 190 188 200 192 189 180 175 175 169 167 161 153 151 151 143 136 126 122 119 113 109 109
152 157 176 190 187 191 193 192 180 171 182 185 189 210 204 199 209 215 204 204 205 206 208 218 210 210 202 187 188 181 171 166 160 156 155 145 139 132 123 124 116 101 101
160 159 167 172 188 188 192 186 181 187 192 186 188 201 214 212 226 234 234 234 233 238 229 232 237 238 229 208 209 202 179 171 170 164 160 153 141 135 130 124 118 103 92
164 165 164 170 177 183 187 187 185 192 192 188 190 203 210 218 231 238 245 243 239 243 246 251 258 256 255 246 240 232 213 201 194 182 171 163 150 143 142 127 118 107 86
150 162 166 171 170 177 191 203 202 191 198 201 196 202 206 220 240 243 248 250 247 246 253 266 268 269 267 258 250 251 233 221 213 207 194 178 163 149 115 125 114 96 71
153 155 163 171 176 181 202 215 220 214 212 213 214 204 210 223 239 248 249 255 252 253 256 263 266 270 266 266 257 259 252 242 235 235 211 192 181 169 122 63 68 84 40
163 172 167 174 185 189 202 220 231 225 219 223 216 209 211 219 233 237 247 252 255 251 260 264 264 267 266 272 268 268 267 261 261 248 234 207 165 140 71 54 39 40 41
166 160 173 171 180 187 200 209 217 215 229 233 216 215 221 221 223 235 249 250 251 247 262 272 268 269 267 277 269 274 275 279 287 305 310 313 349 18 25 28 29 25 17
158 159 167 186 181 174 175 234 241 250 252 252 263 256 252 241 233 241 251 254 256 257 256 268 280 275 273 281 278 274 265 272 293 307 328 341 351 2 3 5 7 8 3
164 157 156 162 161 179 252 270 265 268 266 262 248 263 270 262 256 246 255 260 260 264 258 265 273 281 276 286 293 290 253 242 266 319 320 346 346 350 352 352 350 351 344
163 151 158 253 158 296 297 288 288 278 262 249 258 257 263 277 274 276 266 279 282 272 267 266 272 278 284 276 287 302 312 308 243 242 334 329 341 335 338 340 337 333 332
117 126 87 303 296 300 311 315 308 303 305 277 283 283 280 275 285 284 277 276 279 288 286 273 271 277 280 279 277 284 292 300 315 322 247 330 332 330 323 331 326 321 322
299 290 288 292 306 301 308 317 305 185 327 298 290 290 288 292 290 295 292 283 283 284 286 288 281 276 278 284 283 284 290 292 289 290 268 298 302 326 334 336 322 320 326